GW3047 Weather Reports


Display with metric or nautical units.
time (UTC)temp
F
wind
direction
speed
MPH
gust
MPH
rain 1hr
in
rain 24hr
in
rain mn
in
humidity
%
barometer
mb
20260506174601 41 1 4.0 9.0 0.01 0.42 0.41 90 1020.4
20260506173126 41 83 1.0 10.0 0.01 0.42 0.41 92 1020.5
20260506171555 40 64 3.0 7.0 0.00 0.41 0.40 92 1020.3
20260506170055 39 27 1.0 10.0 0.00 0.41 0.40 92 1020.3
20260506164557 39 23 2.0 9.0 0.00 0.41 0.40 92 1020.2
20260506163056 39 24 3.0 6.0 0.01 0.41 0.40 92 1020.2
20260506161609 38 23 2.0 8.0 0.01 0.41 0.40 92 1020.1
20260506160107 38 45 1.0 8.0 0.02 0.41 0.40 92 1020.1
20260506154600 38 30 2.0 7.0 0.04 0.41 0.40 92 1020.0
20260506153054 38 58 2.0 9.0 0.05 0.40 0.39 93 1019.9
20260506151558 39 67 2.0 9.0 0.06 0.40 0.39 93 1019.7
20260506144611 39 56 1.0 7.0 0.05 0.37 0.36 94 1019.6
20260506143057 39 76 2.0 6.0 0.04 0.35 0.34 94 1019.4
20260506141554 39 45 2.0 9.0 0.05 0.34 0.33 94 1019.3
20260506140112 39 71 1.0 4.0 0.04 0.33 0.32 94 1019.3
20260506134556 39 347 0.0 4.0 0.03 0.32 0.31 94 1019.4
20260506133141 39 0 0.0 5.0 0.02 0.31 0.30 94 1019.2
20260506131558 39 0 0.0 4.0 0.01 0.29 0.28 94 1019.2
20260506130138 39 1 2.0 8.0 0.01 0.29 0.28 93 1018.9
20260506124558 39 1 1.0 3.0 0.01 0.29 0.28 93 1019.0
20260506123101 38 0 0.0 2.0 0.01 0.29 0.28 93 1018.3
20260506121603 38 0 0.0 4.0 0.00 0.28 0.27 93 1017.9
20260506120104 38 0 0.0 4.0 0.00 0.28 0.27 93 1017.7
20260506114608 38 64 1.0 4.0 0.00 0.28 0.27 93 1017.0
20260506113100 38 79 1.0 3.0 0.00 0.28 0.27 93 1016.7
20260506111557 38 79 0.0 3.0 0.01 0.28 0.27 93 1016.8
20260506110057 38 72 1.0 4.0 0.02 0.28 0.27 93 1017.0
20260506104605 38 74 1.0 3.0 0.03 0.28 0.27 92 1017.1
20260506103105 38 0 0.0 5.0 0.04 0.28 0.27 92 1016.6
20260506101555 38 0 1.0 6.0 0.04 0.27 0.26 92 1016.5
20260506100108 38 79 1.0 7.0 0.04 0.26 0.25 92 1016.5
20260506094603 38 75 2.0 6.0 0.06 0.25 0.24 92 1016.5
20260506093054 38 64 2.0 9.0 0.05 0.24 0.23 92 1016.5
20260506091557 38 78 3.0 12.0 0.04 0.23 0.22 92 1016.2
20260506090054 38 66 3.0 8.0 0.03 0.22 0.21 92 1016.1
20260506084559 38 102 3.0 9.0 0.01 0.19 0.18 91 1016.4
20260506083058 38 64 3.0 9.0 0.02 0.19 0.18 91 1016.1
20260506081607 38 79 2.0 13.0 0.05 0.19 0.18 91 1016.5
20260506073057 39 76 2.0 7.0 0.07 0.17 0.16 91 1016.6
20260506071555 39 64 4.0 10.0 0.06 0.14 0.13 90 1016.6
20260506061557 40 39 2.0 6.0 0.06 0.08 0.07 90 1016.8
20260506044557 40 64 2.0 7.0 0.01 0.01 0.01 86 1015.8
20260506043100 41 18 2.0 5.0 0.01 0.01 0.01 85 1016.1
20260506041558 41 0 2.0 5.0 0.01 0.01 0.01 83 1015.8
20260506040056 41 67 3.0 10.0 0.00 0.00 0.00 82 1015.2
20260506034615 41 67 4.0 10.0 0.00 0.00 0.00 78 1015.3
20260506033055 42 77 3.0 12.0 0.00 0.00 0.00 76 1014.9
20260506031605 42 83 4.0 13.0 0.00 0.00 0.00 75 1014.5
20260506030058 42 57 5.0 11.0 0.00 0.00 0.00 75 1014.4
20260506024559 42 74 6.0 15.0 0.00 0.00 0.00 76 1014.1
20260506023105 42 79 5.0 13.0 0.00 0.00 0.00 75 1013.8
20260506021556 43 70 4.0 14.0 0.00 0.00 0.00 73 1013.4
20260506020058 43 72 7.0 16.0 0.00 0.00 0.00 71 1013.4
20260506014557 43 42 4.0 14.0 0.00 0.00 0.00 71 1013.5
20260506013109 43 69 4.0 12.0 0.00 0.00 0.00 70 1013.6
20260506011600 44 65 3.0 12.0 0.00 0.00 0.00 72 1013.4
20260506010119 44 52 4.0 11.0 0.00 0.00 0.00 70 1013.4
20260506004556 44 83 3.0 12.0 0.00 0.00 0.00 70 1013.3
20260506003114 45 35 3.0 12.0 0.00 0.00 0.00 68 1013.2
20260506001613 45 73 3.0 10.0 0.00 0.00 0.00 67 1013.2
20260506000056 46 65 2.0 11.0 0.00 0.00 0.00 68 1013.0
20260505234556 46 47 2.0 8.0 0.00 0.00 0.00 66 1013.3
20260505233106 46 54 3.0 6.0 0.00 0.00 0.00 65 1013.3
20260505231556 47 66 2.0 10.0 0.00 0.00 0.00 64 1013.3
20260505230057 47 47 2.0 8.0 0.00 0.00 0.00 63 1013.1
20260505224556 48 345 3.0 8.0 0.00 0.00 0.00 61 1013.1
20260505223055 48 56 3.0 9.0 0.00 0.00 0.00 59 1012.9
20260505221556 49 107 3.0 9.0 0.00 0.00 0.00 57 1012.9
20260505220058 49 65 3.0 11.0 0.00 0.00 0.00 56 1012.7
20260505214624 50 91 4.0 11.0 0.00 0.00 0.00 56 1012.5
20260505213059 49 70 2.0 13.0 0.00 0.00 0.00 56 1012.6
20260505211556 50 72 3.0 12.0 0.00 0.00 0.00 55 1012.9
20260505210058 51 60 3.0 12.0 0.00 0.00 0.00 54 1013.0
20260505204556 51 307 6.0 12.0 0.00 0.00 0.00 52 1012.9
20260505203056 51 66 6.0 13.0 0.00 0.00 0.00 51 1012.8
20260505201557 52 56 4.0 11.0 0.00 0.00 0.00 51 1013.1
20260505200056 52 66 3.0 12.0 0.00 0.00 0.00 50 1013.2
20260505194555 52 71 4.0 10.0 0.00 0.00 0.00 50 1013.3
20260505193056 52 54 4.0 15.0 0.00 0.00 0.00 49 1013.2
20260505191608 53 59 2.0 10.0 0.00 0.00 0.00 48 1013.4
20260505190105 53 67 5.0 14.0 0.00 0.00 0.00 48 1013.4
20260505184558 53 59 3.0 12.0 0.00 0.00 0.00 48 1013.3
20260505183131 53 61 3.0 10.0 0.00 0.00 0.00 47 1013.5
20260505181600 53 93 3.0 10.0 0.00 0.00 0.00 47 1013.6
20260505180057 53 59 5.0 18.0 0.00 0.00 0.00 47 1013.5